Home   Weather   Plzen   Past weeks

Flag for Czech Republic Past Weather in Plzen, Czech Republic — Yesterday and Last 2 Weeks

Now
45 °F

Overcast.


Feels Like: N/A
Forecast: 36 / 44 °F
Wind: N/A

Location: Kocelovice

Current Time: Apr 25, 2017 at 10:42:40 am

Latest Report: Apr 25, 2017 at 9:00 am


Visibility: 13 mi

Pressure: 29.72 "Hg

Humidity: 74%

Dew Point: 37 °F

Location of PlzenLocation

Past Weather in Plzen — Graph

°F

Plzen Temperature Yesterday

Maximum temperature yesterday: 56 °F (at 6:00 pm)
Minimum temperature yesterday: 34 °F (at 6:00 am)
Average temperature yesterday: 44 °F

High & Low Weather Summary for the Past Weeks

 TemperatureHumidityPressure
High71 °F (Apr 10, 3:00 pm)98% (Apr 17, 5:00 pm)30.57 "Hg (Apr 17, 5:00 pm)
Low27 °F (Apr 21, 6:00 am)38% (Apr 10, 3:00 pm)29.72 "Hg (Apr 25, 9:00 am)
Average43 °F70%30.11 "Hg
* Reported Apr 10 9:00 am — Apr 25 9:00 am, Plzen, Weather by CustomWeather, © 2017

Note: Actual official high and low records may vary slightly from our data, if they occured in-between our weather recording intervals... More about our weather records

Advertising

Plzen Weather History for the Previous 24 Hours

Scroll right to see more
 ConditionsComfort  
Time TempWeatherWind HumidityBarometerVisibility
9:00 am
Tue, Apr 25
45 °FOvercast.N/A74%29.72 "Hg12 mi
8:00 am39 °FPartly sunny.2 mph89%29.74 "Hg12 mi
7:00 am34 °FChilly.2 mph88%29.76 "Hg12 mi
6:00 am36 °FChilly.1 mph82%29.75 "Hg12 mi
5:00 am36 °FChilly.2 mph85%29.76 "Hg12 mi
4:00 am33 °FChilly.2 mph93%29.79 "Hg12 mi
3:00 am35 °FChilly.2 mph91%29.80 "Hg12 mi
2:00 am33 °FChilly.3 mph92%29.84 "Hg12 mi
1:00 am37 °FChilly.2 mph85%29.85 "Hg12 mi
12:00 am38 °FChilly.N/A77%29.87 "Hg12 mi
11:00 pm
Mon, Apr 24
42 °FQuite cool.1 mph64%29.88 "Hg12 mi
9:00 pm49 °FOvercast.2 mph48%29.88 "Hg40 mi
8:00 pm51 °FPartly sunny.5 mph45%29.88 "Hg43 mi
7:00 pm55 °FPassing clouds.3 mph42%29.87 "Hg47 mi
6:00 pm56 °FScattered clouds.N/A42%29.88 "Hg47 mi
5:00 pm55 °FPartly sunny.3 mph42%29.90 "Hg47 mi
4:00 pm55 °FPartly sunny.3 mph43%29.92 "Hg47 mi
3:00 pm55 °FPartly sunny.3 mph44%29.95 "Hg47 mi
2:00 pm52 °FScattered clouds.3 mph47%29.99 "Hg47 mi
1:00 pm49 °FPassing clouds.N/A47%30.03 "Hg47 mi
12:00 pm46 °FPassing clouds.N/A50%30.08 "Hg47 mi
11:00 am45 °FScattered clouds.3 mph51%30.10 "Hg47 mi
10:00 am44 °FScattered clouds.N/A54%30.13 "Hg47 mi
Weather by CustomWeather, © 2017

See weather overviewHow to use our weather pages